This is the latest recevied weather packets stored in our database for station/object G4WLC-1. If no packets are shown the sender has not sent any weather packets the latest 10 day(s).
| Time | Temp. | Humidity | Pressure | Rain* | Wind** | Luminosity | Snow |
|---|---|---|---|---|---|---|---|
| 1777721592 | 16.11° C | 68% | 1016.2 hPa | 0 mm | - | - | - |
| 1777721292 | 15.56° C | 71% | 1016.3 hPa | 0 mm | - | - | - |
| 1777720992 | 15.56° C | 69% | 1016.4 hPa | 0 mm | - | - | - |
| 1777720692 | 15° C | 70% | 1016.4 hPa | 0 mm | - | - | - |
| 1777720392 | 15° C | 68% | 1016.4 hPa | 0 mm | - | - | - |
| 1777720092 | 15° C | 71% | 1016.5 hPa | 0 mm | - | - | - |
| 1777719792 | 15° C | 75% | 1016.6 hPa | 0 mm | - | - | - |
| 1777719493 | 15° C | 72% | 1016.7 hPa | 0 mm | - | - | - |
| 1777719192 | 15° C | 72% | 1016.9 hPa | 0 mm | - | - | - |
| 1777718893 | 15° C | 73% | 1016.9 hPa | 0 mm | - | - | - |
| 1777718592 | 15° C | 75% | 1016.9 hPa | 0 mm | - | - | - |
| 1777718292 | 15° C | 71% | 1016.9 hPa | 0 mm | - | - | - |
| 1777717993 | 15° C | 77% | 1016.8 hPa | 0 mm | - | - | - |
| 1777717693 | 15° C | 76% | 1016.6 hPa | 0 mm | - | - | - |
| 1777717392 | 14.44° C | 76% | 1016.8 hPa | 0 mm | - | - | - |
| 1777717093 | 14.44° C | 77% | 1016.9 hPa | 0 mm | - | - | - |
| 1777716792 | 14.44° C | 77% | 1017.1 hPa | 0 mm | - | - | - |
| 1777716493 | 15° C | 77% | 1017.1 hPa | 0 mm | - | - | - |
| 1777716192 | 14.44° C | 78% | 1017 hPa | 0 mm | - | - | - |
| 1777715893 | 14.44° C | 77% | 1016.9 hPa | 0 mm | - | - | - |
| 1777715593 | 15° C | 76% | 1017.1 hPa | 0 mm | - | - | - |
| 1777715293 | 15° C | 77% | 1017 hPa | 0 mm | - | - | - |
| 1777714993 | 15° C | 78% | 1017.2 hPa | 0 mm | - | - | - |
| 1777714693 | 14.44° C | 79% | 1017.1 hPa | 0 mm | - | - | - |
| 1777714393 | 14.44° C | 79% | 1017.1 hPa | 0 mm | - | - | - |
* Rain latest hour (hover to see other rain measurements)
** Current wind speed in m/s (hover to see current wind gust speed)